Regional Weather Roundup
Issued by NWS

Home | Current Version | Previous Version | Graphics & Text | Print | Product List | Glossary On
Versions: 1 2 3 4 5 6 7 8 9 10 11 12 13 14 15 16 17 18 19 20 21 22 23 24 25 26 27 28 29 30 31 32 33 34 35 36 37 38 39 40 41 42 43 44 45 46 47 48 49 50
000
ASUS45 KSLC 031610
RWRUT

UTAH REGIONAL WEATHER ROUNDUP
NATIONAL WEATHER SERVICE SALT LAKE CITY UT
1000 AM MDT MON AUG 03 2015

UTZ001>011-023>025-031700-

NORTHERN UTAH

CITY           SKY/WX    TMP DP  RH WIND       PRES   REMARKS
BRIGHAM CITY   CLOUDY    64  60  87 S6        30.12R
HILL AFB       LGT RAIN  61  60  99 CALM      30.13R FOG
LOGAN          LGT RAIN  65  57  75 SE7       30.08R
OGDEN          LGT RAIN  62  60  93 MISG      30.11R FOG
PROVO AIRPORT  NOT AVBL
SALT LAKE CITY LGT RAIN  63  60  90 N10       30.09R
VERNAL         CLOUDY    66  59  78 CALM      30.11S
WENDOVER       CLOUDY    72  54  53 N6        30.07R
HEBER CITY     CLOUDY    61  55  82 SW6       30.12S
WEST JORDAN    CLOUDY    61  61 100 N8        30.11R

$$

UTZ012>022-026-027-031700-

SOUTHERN/CENTRAL UTAH

CITY           SKY/WX    TMP DP  RH WIND       PRES   REMARKS
BLANDING       MOSUNNY   65  57  76 CALM      30.29S
BRYCE CANYON   SUNNY     64  51  62 CALM      30.30S
CEDAR CITY     SUNNY     72  46  39 CALM      30.17R
DELTA          PTSUNNY   63  56  79 SE3       30.15S
HANKSVILLE     MOSUNNY   70  61  73 CALM      30.12S
MILFORD        SUNNY     73  48  41 N10       30.13S
MOAB/CYNLANDS  CLOUDY    72  61  68 S6        30.09R
PRICE          LGT RAIN  63  56  78 S7        30.14R
ST GEORGE      CLOUDY    84  52  32 CALM      30.00S
KANAB          SUNNY     75  54  46 CALM      30.18S

$$

REGIONAL REPORTS     COLORADO/ARIZONA

CITY           SKY/WX    TMP DP  RH WIND       PRES   REMARKS
CRAIG, CO      CLOUDY    63  56  78 CALM      30.20R
GRAND JUNCTION MOSUNNY   74  57  55 SE12      30.10F
RIFLE          PTSUNNY   65  60  84 NW3       30.18S
MONTROSE       MOSUNNY   71  56  58 CALM      30.20S
CORTEZ         SUNNY     69  55  60 SW6       30.22S
PAGE, AZ       SUNNY     74  60  61 N3        30.10R
GRAND CANYON   SUNNY     76  46  34 SW10      30.26S
KINGMAN        SUNNY     91  43  18 VRB5      30.01R
FLAGSTAFF      SUNNY     73  48  41 VRB5      30.30S

$$

REGIONAL REPORTS    NEVADA/IDAHO/WYOMING

CITY           SKY/WX    TMP DP  RH WIND       PRES   REMARKS
LAS VEGAS, NV  SUNNY     92  42  17 CALM      29.85R
ELY            SUNNY     71  43  36 VRB6      30.18S
ELKO           PTSUNNY   73  47  39 CALM      30.09S
POCATELLO, ID  SUNNY     75  50  41 S20       30.03R
BURLEY         CLOUDY    75  48  38 W10       29.98R
EVANSTON, WY   LGT RAIN  55  53  93 W8        30.20S FOG
ROCK SPRINGS   CLOUDY    57  54  89 SE7       30.20S
KEMMERER       DRIZZLE   59  48  67 E15G24    30.23S

$$


USA.gov is the U.S. government's official web portal to all federal, state and local government web resources and services.